This is the latest recevied weather packets stored in our database for station/object KC3JUG-13. If no packets are shown the sender has not sent any weather packets the latest 10 day(s).
| Time | Temp. | Humidity | Pressure | Rain* | Wind** | Luminosity | Snow |
|---|---|---|---|---|---|---|---|
| 1777483851 | 13.33° C | 67% | 1015.1 hPa | 0 mm | - | - | - |
| 1777483071 | 13.33° C | 64% | 1015.3 hPa | 0 mm | - | - | - |
| 1777482291 | 13.33° C | 64% | 1015.5 hPa | 0 mm | - | - | - |
| 1777481511 | 13.33° C | 62% | 1015.9 hPa | 0 mm | - | - | - |
| 1777480731 | 13.89° C | 63% | 1015.9 hPa | 0 mm | - | - | - |
| 1777479951 | 13.89° C | 62% | 1016 hPa | 0 mm | - | - | - |
| 1777479171 | 13.89° C | 64% | 1015.9 hPa | 0 mm | - | - | - |
| 1777478391 | 13.89° C | 65% | 1016 hPa | 0 mm | - | - | - |
| 1777477611 | 13.89° C | 65% | 1016.1 hPa | 0 mm | - | - | - |
| 1777476831 | 13.33° C | 66% | 1016.1 hPa | 0 mm | - | - | - |
| 1777476051 | 13.33° C | 68% | 1016.5 hPa | 0 mm | - | - | - |
| 1777475271 | 13.89° C | 66% | 1016.5 hPa | 0 mm | - | - | - |
| 1777474491 | 13.89° C | 67% | 1016.5 hPa | 0 mm | - | - | - |
| 1777473711 | 13.89° C | 67% | 1016.6 hPa | 0 mm | - | - | - |
| 1777472931 | 13.33° C | 67% | 1016.6 hPa | 0 mm | - | - | - |
| 1777472151 | 12.78° C | 68% | 1016.9 hPa | 0 mm | - | - | - |
| 1777471371 | 12.78° C | 70% | 1016.8 hPa | 0 mm | - | - | - |
| 1777470591 | 12.22° C | 70% | 1016.8 hPa | 0 mm | - | - | - |
| 1777469811 | 12.22° C | 68% | 1016.9 hPa | 0 mm | - | - | - |
| 1777469031 | 12.22° C | 69% | 1016.9 hPa | 0 mm | - | - | - |
| 1777468251 | 11.67° C | 70% | 1017 hPa | 0 mm | - | - | - |
| 1777467471 | 11.11° C | 69% | 1017.1 hPa | 0 mm | - | - | - |
| 1777466691 | 11.11° C | 68% | 1017.4 hPa | 0 mm | - | - | - |
| 1777465913 | 11.11° C | 69% | 1017.1 hPa | 0 mm | - | - | - |
| 1777465131 | 10.56° C | 72% | 1017 hPa | 0 mm | - | - | - |
* Rain latest hour (hover to see other rain measurements)
** Current wind speed in m/s (hover to see current wind gust speed)